WIF5X ENBR-ENZV

Flight info

Callsign WIF5X
Flight time 0h 25m
Altitude 17000
Route BEGOD3D BEGOD BEGOD2R
Aircraft DH8D/M-SDE2E3FGRY/H

Departure

Time 2026-04-27 13:05
Airport Bergen Airport, Flesland (ENBR)

Arrival

Time 2026-04-27 13:30
Airport Stavanger Airport, Sola (ENZV)
Time Latitude Longitude Altitude Speed Heading
2026-04-27 12:36 60.28737 5.22896 178 ft 0 kts 80°
2026-04-27 12:58 60.28737 5.22897 178 ft 0 kts 80°
2026-04-27 12:59 60.28736 5.22881 177 ft 2 kts 80°
2026-04-27 12:59 60.28733 5.22852 176 ft 2 kts 80°
2026-04-27 12:59 60.28731 5.22823 175 ft 1 kts 80°
2026-04-27 13:00 60.28731 5.22821 175 ft 0 kts 80°
2026-04-27 13:02 60.28731 5.22823 175 ft 0 kts 90°
2026-04-27 13:02 60.28709 5.22823 174 ft 6 kts 221°
2026-04-27 13:02 60.28678 5.22710 171 ft 11 kts 258°
2026-04-27 13:02 60.28664 5.22561 169 ft 10 kts 262°
2026-04-27 13:03 60.28679 5.22417 168 ft 8 kts 273°
2026-04-27 13:03 60.28672 5.22290 165 ft 9 kts 261°
2026-04-27 13:03 60.28661 5.22153 162 ft 10 kts 260°
2026-04-27 13:03 60.28676 5.22038 160 ft 9 kts 344°
2026-04-27 13:04 60.28684 5.22034 160 ft 0 kts 349°
2026-04-27 13:04 60.28870 5.21971 163 ft 73 kts 349°
2026-04-27 13:04 60.29643 5.21712 148 ft 145 kts 350°
2026-04-27 13:04 60.30695 5.21417 574 ft 157 kts 352°
2026-04-27 13:05 60.31785 5.21174 1208 ft 163 kts 357°
2026-04-27 13:05 60.32877 5.20422 1725 ft 175 kts 319°
2026-04-27 13:05 60.33551 5.18362 2344 ft 183 kts 290°
2026-04-27 13:05 60.33814 5.15862 3040 ft 188 kts 271°
2026-04-27 13:06 60.33528 5.13097 3281 ft 217 kts 246°
2026-04-27 13:06 60.32599 5.10726 3837 ft 222 kts 214°
2026-04-27 13:06 60.31163 5.09601 4424 ft 229 kts 189°
2026-04-27 13:06 60.29560 5.09513 5041 ft 234 kts 175°
2026-04-27 13:07 60.27906 5.09762 5575 ft 244 kts 175°
2026-04-27 13:07 60.26181 5.10024 6186 ft 250 kts 174°
2026-04-27 13:07 60.24471 5.10337 6921 ft 249 kts 174°
2026-04-27 13:07 60.22753 5.10797 7610 ft 251 kts 170°
2026-04-27 13:08 60.21031 5.11380 8262 ft 255 kts 171°
2026-04-27 13:08 60.19252 5.11898 8874 ft 260 kts 171°
2026-04-27 13:08 60.17439 5.12348 9516 ft 264 kts 174°
2026-04-27 13:08 60.15617 5.12575 10106 ft 267 kts 176°
2026-04-27 13:09 60.13739 5.12846 10497 ft 275 kts 175°
2026-04-27 13:09 60.11809 5.13166 11001 ft 278 kts 174°
2026-04-27 13:09 60.09871 5.13510 11476 ft 282 kts 175°
2026-04-27 13:09 60.07915 5.13813 11972 ft 284 kts 174°
2026-04-27 13:10 60.05948 5.14197 12477 ft 287 kts 174°
2026-04-27 13:10 60.03964 5.14558 12976 ft 289 kts 174°
2026-04-27 13:10 60.01956 5.14945 13483 ft 291 kts 174°
2026-04-27 13:10 59.99922 5.15256 13911 ft 296 kts 175°
2026-04-27 13:11 59.97885 5.15490 14400 ft 296 kts 176°
2026-04-27 13:11 59.95823 5.15736 14913 ft 296 kts 176°
2026-04-27 13:11 59.93747 5.15881 15317 ft 300 kts 178°
2026-04-27 13:11 59.91679 5.15823 15672 ft 304 kts 181°
2026-04-27 13:12 59.89565 5.15610 16099 ft 305 kts 183°
2026-04-27 13:12 59.87425 5.15387 16335 ft 311 kts 182°
2026-04-27 13:12 59.85249 5.15223 16623 ft 314 kts 181°
2026-04-27 13:12 59.83046 5.15126 16801 ft 321 kts 179°
2026-04-27 13:13 59.80796 5.15222 17041 ft 323 kts 176°
2026-04-27 13:13 59.78525 5.15587 17165 ft 329 kts 175°
2026-04-27 13:13 59.76242 5.15787 17346 ft 333 kts 178°
2026-04-27 13:13 59.73873 5.15913 17376 ft 341 kts 178°
2026-04-27 13:14 59.71481 5.16035 17393 ft 347 kts 178°
2026-04-27 13:14 59.69072 5.16156 17386 ft 352 kts 178°
2026-04-27 13:14 59.66597 5.16281 17388 ft 351 kts 178°
2026-04-27 13:14 59.64154 5.16405 17384 ft 352 kts 178°
2026-04-27 13:15 59.61715 5.16806 17353 ft 351 kts 166°
2026-04-27 13:15 59.59506 5.18672 17407 ft 346 kts 152°
2026-04-27 13:15 59.57186 5.19979 17412 ft 348 kts 172°
2026-04-27 13:15 59.54770 5.20364 17357 ft 350 kts 174°
2026-04-27 13:16 59.52401 5.21228 17387 ft 349 kts 168°
2026-04-27 13:16 59.49967 5.21605 17396 ft 349 kts 178°
2026-04-27 13:16 59.47557 5.21673 17390 ft 350 kts 179°
2026-04-27 13:16 59.45099 5.21719 17379 ft 351 kts 179°
2026-04-27 13:17 59.42680 5.21758 17386 ft 350 kts 179°
2026-04-27 13:17 59.40231 5.21796 17384 ft 351 kts 179°
2026-04-27 13:17 59.37787 5.21834 17378 ft 353 kts 179°
2026-04-27 13:17 59.35344 5.21873 17284 ft 356 kts 179°
2026-04-27 13:18 59.32838 5.21913 17112 ft 360 kts 179°
2026-04-27 13:18 59.30333 5.21954 16938 ft 363 kts 179°
2026-04-27 13:18 59.27820 5.22059 16762 ft 365 kts 178°
2026-04-27 13:18 59.25287 5.22207 16583 ft 363 kts 176°
2026-04-27 13:19 59.22764 5.22581 16280 ft 360 kts 174°
2026-04-27 13:19 59.20283 5.22970 15891 ft 358 kts 174°
2026-04-27 13:19 59.17815 5.23353 15440 ft 351 kts 174°
2026-04-27 13:19 59.15455 5.24399 14609 ft 349 kts 153°
2026-04-27 13:20 59.13688 5.27334 14410 ft 329 kts 124°
2026-04-27 13:20 59.12763 5.31389 14188 ft 323 kts 103°
2026-04-27 13:20 59.12204 5.35564 13851 ft 320 kts 101°
2026-04-27 13:20 59.11697 5.39815 13522 ft 321 kts 99°
2026-04-27 13:21 59.11226 5.44040 13194 ft 323 kts 99°
2026-04-27 13:21 59.10770 5.48316 12866 ft 320 kts 98°
2026-04-27 13:21 59.10334 5.52545 12525 ft 317 kts 98°
2026-04-27 13:21 59.09909 5.56754 12217 ft 315 kts 98°
2026-04-27 13:22 59.09500 5.60887 11850 ft 310 kts 97°
2026-04-27 13:22 59.09098 5.64978 11551 ft 303 kts 97°
2026-04-27 13:22 59.08705 5.69007 11245 ft 299 kts 98°
2026-04-27 13:22 59.08327 5.72914 10953 ft 296 kts 98°
2026-04-27 13:23 59.07948 5.76829 10614 ft 293 kts 98°
2026-04-27 13:23 59.07574 5.80707 10329 ft 289 kts 98°
2026-04-27 13:23 59.07211 5.84467 10263 ft 277 kts 98°
2026-04-27 13:23 59.06855 5.88146 9921 ft 278 kts 98°
2026-04-27 13:24 59.06429 5.91782 9377 ft 279 kts 106°
2026-04-27 13:24 59.05506 5.95095 8668 ft 283 kts 127°
2026-04-27 13:24 59.03935 5.97404 7948 ft 286 kts 154°
2026-04-27 13:24 59.02080 5.98724 7395 ft 280 kts 160°
2026-04-27 13:25 59.00242 5.99796 6850 ft 275 kts 167°
2026-04-27 13:25 58.98368 6.00222 6307 ft 271 kts 180°
2026-04-27 13:25 58.96495 5.99979 5779 ft 266 kts 185°
2026-04-27 13:25 58.94675 5.99653 5233 ft 261 kts 185°
2026-04-27 13:26 58.92878 5.99234 4635 ft 259 kts 187°
2026-04-27 13:26 58.91229 5.98166 4230 ft 250 kts 211°
2026-04-27 13:26 58.89907 5.96041 3874 ft 239 kts 227°
2026-04-27 13:26 58.88991 5.93470 3505 ft 228 kts 244°
2026-04-27 13:27 58.88440 5.90676 3156 ft 217 kts 253°
2026-04-27 13:27 58.88086 5.87747 2930 ft 229 kts 259°
2026-04-27 13:27 58.87777 5.84731 2868 ft 231 kts 260°
2026-04-27 13:27 58.87501 5.81639 2629 ft 228 kts 261°
2026-04-27 13:28 58.87233 5.78676 2180 ft 223 kts 261°
2026-04-27 13:28 58.86918 5.75784 1690 ft 223 kts 256°
2026-04-27 13:28 58.86531 5.72989 1191 ft 207 kts 258°
2026-04-27 13:28 58.86658 5.70434 843 ft 185 kts 288°
2026-04-27 13:29 58.86989 5.68211 666 ft 160 kts 287°
2026-04-27 13:29 58.87303 5.66251 365 ft 147 kts 284°
2026-04-27 13:29 58.87575 5.64459 82 ft 134 kts 285°
2026-04-27 13:29 58.87800 5.62978 27 ft 79 kts 285°
2026-04-27 13:30 58.87860 5.62585 25 ft 2 kts 285°
2026-04-27 13:30 58.87876 5.62500 25 ft 6 kts 318°
2026-04-27 13:30 58.87925 5.62502 25 ft 8 kts 17°
2026-04-27 13:30 58.87985 5.62536 25 ft 9 kts 18°
2026-04-27 13:31 58.88010 5.62678 25 ft 15 kts 106°
2026-04-27 13:31 58.87987 5.62884 26 ft 14 kts 91°
2026-04-27 13:31 58.88013 5.63053 28 ft 13 kts 57°
2026-04-27 13:31 58.88064 5.63166 29 ft 8 kts 45°
2026-04-27 13:32 58.88099 5.63232 31 ft 5 kts 43°
2026-04-27 13:32 58.88136 5.63275 31 ft 5 kts 18°
2026-04-27 13:32 58.88175 5.63256 32 ft 6 kts 304°
2026-04-27 13:32 58.88186 5.63192 32 ft 5 kts 284°
2026-04-27 13:33 58.88196 5.63117 31 ft 3 kts 284°
2026-04-27 13:33 58.88197 5.63108 31 ft 0 kts 284°